Probability
0 0 0 0 0 0 0 0 0 0 0 0 0 0 0 0 0 0 0 0 1 2 2 7 14 20 22 22 24 26 25 25 23 19 14 9 7 6 4 1 1 1 1
0 0 0 0 0 0 0 0 0 0 0 0 0 0 0 0 0 0 0 0 1 1 2 5 12 18 22 22 25 28 28 26 24 22 16 10 9 8 4 2 2 2 2
0 0 0 0 0 0 0 0 0 0 0 0 0 0 0 0 0 0 0 0 0 0 1 4 9 16 20 23 25 28 29 29 26 24 18 12 10 8 5 3 3 3 4
0 0 0 0 0 0 0 0 0 0 0 0 0 0 0 0 0 0 0 0 0 0 1 3 6 12 17 20 21 23 27 30 30 27 22 16 11 8 6 5 5 6 6
0 0 0 0 0 0 0 0 0 0 0 0 0 0 0 0 0 0 0 0 0 0 0 1 3 7 11 14 16 18 21 26 29 29 26 21 15 10 6 5 7 9 9
0 0 0 0 0 0 0 0 0 0 0 0 0 0 0 0 0 0 0 0 0 0 0 0 1 3 4 6 10 11 13 16 20 25 26 22 16 11 8 7 8 10 12
0 0 0 0 0 0 0 0 0 0 0 0 0 0 0 0 0 0 0 0 0 0 0 0 0 1 1 2 4 6 7 9 11 16 20 18 15 13 11 9 9 10 11
0 0 0 0 0 0 0 0 0 0 0 0 0 0 0 0 0 0 0 0 0 0 0 0 0 0 0 0 1 3 5 6 8 10 14 16 16 17 15 12 11 10 9
0 0 0 0 0 0 0 0 0 0 0 0 0 0 0 0 0 0 0 0 0 0 0 0 0 0 1 1 2 2 3 5 7 9 13 18 23 24 22 16 13 11 9
0 0 0 0 0 0 0 0 0 0 0 0 0 0 0 0 0 0 0 0 0 0 0 0 0 1 2 4 4 3 2 3 5 8 11 16 24 28 26 21 17 13 10
0 0 0 0 0 0 0 0 0 0 0 0 0 0 0 0 0 0 0 0 0 0 0 0 0 1 2 4 4 2 1 1 3 5 6 9 17 23 24 21 17 14 12
0 0 0 0 0 0 0 0 0 0 0 0 0 0 0 0 0 0 0 0 0 0 0 0 0 0 1 2 2 1 0 0 1 3 4 5 8 13 16 16 14 12 11
0 0 0 0 0 0 0 0 0 0 0 0 0 0 0 0 0 0 0 0 0 0 0 0 0 0 0 0 0 0 0 0 1 2 3 3 4 5 7 9 11 11 11
0 0 0 0 0 0 0 0 0 0 0 0 0 0 0 0 0 0 0 0 0 0 0 0 0 0 0 0 0 0 0 0 0 1 1 2 2 2 2 4 8 10 10
0 0 0 0 0 0 0 0 0 0 0 0 0 0 0 0 0 0 0 0 0 0 0 0 0 0 0 0 0 0 0 0 0 0 0 1 1 1 0 2 5 7 8
0 0 0 0 0 0 0 0 0 0 0 0 0 0 0 0 0 0 0 0 0 0 0 0 0 0 0 0 0 0 0 0 0 0 0 0 0 0 0 0 2 3 4
0 0 0 0 0 0 0 0 0 0 0 0 0 0 0 0 0 0 0 0 0 0 0 0 0 0 0 0 0 0 0 0 0 0 0 0 0 0 0 0 0 1 1
0 0 0 0 0 0 0 0 0 0 0 0 0 0 0 0 0 0 0 0 0 0 0 0 0 0 0 0 0 0 0 0 0 0 0 0 0 0 0 0 0 0 0
0 0 0 0 0 0 0 0 0 0 0 0 0 0 0 0 0 0 0 0 0 0 0 0 0 0 0 0 0 0 0 0 0 0 0 0 0 0 0 0 0 0 0
0 0 0 0 0 0 0 0 0 0 0 0 0 0 0 0 0 0 0 0 0 0 0 0 0 0 0 0 0 0 0 0 0 0 0 0 0 0 0 0 0 0 0
0 0 0 0 0 0 0 0 0 0 0 0 0 0 0 0 0 0 0 0 0 0 0 0 0 0 0 0 0 0 0 0 0 0 0 0 0 0 0 0 0 0 0
0 0 0 0 0 0 0 0 0 0 0 0 0 0 0 0 0 0 0 0 0 0 0 0 0 0 0 0 0 0 0 0 0 0 0 0 0 0 0 0 0 0 0
0 0 0 0 0 0 0 0 0 0 0 0 0 0 0 0 0 0 0 0 0 0 0 0 0 0 0 0 0 0 0 0 0 0 0 0 0 0 0 0 0 0 0
0 0 0 0 0 0 0 0 0 0 0 0 0 0 0 0 0 0 0 0 0 0 0 0 0 0 0 0 0 0 0 0 0 0 0 0 0 0 0 0 0 0 0
0 0 0 0 0 0 0 0 0 0 0 0 0 0 0 0 0 0 0 0 0 0 0 0 0 0 0 0 0 0 0 0 0 0 0 0 0 0 0 0 0 0 0
0 0 0 0 0 0 0 0 0 0 0 0 0 0 0 0 0 0 0 0 0 0 0 0 0 0 0 0 0 0 0 0 0 0 0 0 0 0 0 0 0 0 0
Wind_Speed
5 6 7 8 8 9 10 10 10 10 8 7 7 6 6 6 5 5 5 6 6 6 7 6 6 5 6 6 7 6 7 5 4 4 4 5 7 8 7 7 8 9 9
6 6 7 8 9 9 10 10 10 10 9 7 6 5 6 6 5 5 5 6 6 6 6 6 6 5 6 7 7 7 5 5 5 4 3 3 5 7 8 7 8 9 8
7 7 8 8 8 9 10 9 10 9 9 9 6 6 5 5 4 5 5 5 6 5 5 6 6 6 6 6 6 7 8 6 6 6 4 4 5 4 6 10 9 9 7
5 6 7 8 8 9 9 10 10 10 9 9 7 8 6 6 6 6 5 6 5 5 5 5 5 6 5 6 7 7 6 7 6 5 5 4 1 3 4 6 9 10 9
4 5 6 7 7 8 8 8 9 9 9 9 8 8 7 6 6 6 6 6 5 5 5 5 5 5 5 6 7 7 7 7 7 6 5 5 4 5 4 4 5 7 8
3 4 5 5 6 6 7 7 8 8 9 9 9 8 9 8 8 7 7 6 4 4 6 5 5 5 5 6 6 7 8 7 8 7 6 6 6 6 5 5 4 5 6
4 4 5 6 6 7 7 7 8 8 8 9 8 9 9 8 7 7 6 6 5 5 6 6 5 5 5 5 6 6 7 8 9 8 7 7 8 5 5 5 4 4 3
3 4 5 5 6 6 6 7 7 7 8 8 9 8 9 6 6 7 6 6 5 6 7 6 6 5 5 5 5 5 6 6 8 9 9 7 7 7 6 6 5 4 4
3 4 4 5 5 5 6 6 7 7 7 8 8 8 9 8 8 8 7 6 6 6 7 7 6 6 5 5 4 4 5 5 6 7 8 7 6 6 6 6 5 6 6
4 3 4 4 4 5 5 5 6 7 6 7 7 7 8 8 8 7 8 8 8 8 8 7 7 6 5 5 4 3 4 4 5 5 7 7 6 6 6 6 6 5 5
4 4 4 4 4 4 4 4 5 5 6 6 7 7 7 7 7 7 8 8 8 8 8 8 7 6 6 5 4 4 4 4 4 5 6 7 7 5 5 6 6 6 5
4 4 4 4 4 4 4 4 4 5 5 6 6 7 7 7 8 8 8 8 8 8 8 8 8 7 6 6 5 5 4 4 4 4 5 6 5 7 5 5 7 6 6
5 5 4 4 4 3 3 3 3 4 4 5 6 6 7 8 8 8 8 8 8 8 8 8 8 7 7 6 6 5 4 3 3 3 3 4 5 6 5 6 6 5 5
6 5 5 4 3 3 3 3 3 3 3 4 5 6 7 7 7 8 8 8 8 8 8 8 7 7 6 6 6 5 4 3 2 2 1 1 2 4 5 5 6 5 5
6 6 5 4 4 3 3 2 2 2 2 3 5 6 6 6 7 7 7 7 7 7 8 7 7 8 7 8 9 6 4 4 3 3 3 3 3 3 2 2 4 5 5
6 6 5 5 4 3 3 2 2 1 2 3 4 4 5 6 6 7 7 7 7 7 8 8 8 8 7 11 12 9 5 4 4 3 3 2 2 2 1 1 1 2 4
6 6 5 5 4 3 2 2 2 1 2 3 3 4 4 5 6 6 7 7 6 7 7 7 7 7 9 12 11 10 6 4 4 4 3 3 2 1 1 3 4 3 2
6 6 5 5 4 3 2 2 2 3 2 2 3 3 4 4 5 5 6 6 6 6 6 6 7 6 8 12 12 11 6 4 4 4 4 3 2 3 3 0 1 2 2
5 5 5 4 4 3 3 4 3 3 3 3 3 2 3 4 4 5 5 5 6 6 5 5 6 6 6 10 11 11 4 3 3 3 4 4 3 4 4 1 1 2 3
4 4 5 5 5 4 4 5 4 4 3 3 3 3 3 3 4 4 5 4 4 5 5 4 5 5 6 8 10 11 4 3 3 3 3 5 6 5 5 1 1 2 2
4 5 5 5 5 4 5 6 5 4 3 3 4 4 4 4 4 4 4 4 4 4 4 4 4 4 5 5 8 10 5 4 3 3 3 4 6 5 4 3 2 2 1
4 5 6 6 5 5 6 7 6 4 4 4 5 5 5 4 4 4 4 4 4 5 4 4 3 3 2 4 6 8 7 8 3 3 3 3 5 4 3 2 4 2 1
4 5 6 6 6 6 7 8 6 5 5 6 6 6 6 5 5 5 5 4 4 4 4 4 3 3 2 1 1 3 4 6 3 3 5 4 4 2 1 3 1 2 2
3 4 5 6 6 6 7 8 6 5 7 7 7 7 7 7 6 4 5 5 4 4 4 4 4 3 2 2 2 3 1 1 1 1 1 1 1 1 2 2 2 1 1
2 3 5 5 6 6 6 6 6 7 8 9 8 8 7 7 6 6 5 6 5 4 5 5 4 5 4 2 4 6 5 5 4 5 3 2 2 2 2 1 1 1 2
2 2 4 5 6 6 6 6 6 7 9 9 8 7 6 6 6 6 6 9 10 7 9 10 8 6 5 4 5 6 7 6 6 6 3 3 3 3 2 2 2 2 2
Wind_Direction
349 2 355 353 350 353 350 350 348 349 347 343 335 333 330 323 321 314 317 304 295 287 277 271 262 250 245 242 240 236 230 220 208 211 227 238 243 240 224 231 232 224 217
337 356 351 354 352 353 352 350 351 349 347 345 332 321 319 315 320 317 318 317 310 297 282 274 268 255 251 245 239 231 230 216 198 199 199 225 227 231 230 222 230 232 211
331 344 347 349 349 354 352 349 350 347 349 345 335 328 327 317 328 329 327 324 320 307 293 286 280 270 257 250 244 235 231 225 209 207 199 204 218 215 217 219 219 226 222
322 333 339 344 347 351 348 347 351 351 351 346 344 343 338 334 330 327 325 325 327 326 312 294 282 274 266 258 249 238 236 231 220 212 219 226 214 213 215 214 220 218 217
318 329 340 342 345 348 346 346 351 355 356 350 348 340 343 335 330 329 331 330 336 334 328 314 297 287 275 266 259 252 240 233 226 212 203 210 217 231 225 212 212 215 218
306 320 337 339 344 347 346 346 352 358 358 352 349 349 347 342 340 341 338 336 335 334 335 324 310 299 289 278 268 255 244 238 233 225 213 204 204 208 214 222 216 215 215
299 318 333 339 342 343 345 344 351 355 357 354 354 354 350 344 345 344 341 338 337 338 337 329 319 311 300 286 274 260 248 240 235 230 225 220 221 210 209 215 219 220 214
291 309 323 329 332 336 339 341 346 350 354 352 354 356 354 348 349 348 342 340 338 336 334 329 323 316 308 295 282 268 256 245 236 232 230 228 224 215 210 210 207 209 213
280 298 314 321 327 331 336 339 340 346 353 351 351 355 356 355 353 351 350 347 343 338 340 336 334 327 317 309 300 281 269 261 246 237 231 231 227 218 213 210 209 208 216
269 288 304 309 317 327 330 334 340 344 351 351 353 355 353 355 353 351 354 350 348 350 346 345 341 337 332 324 317 303 289 268 257 244 237 232 227 218 210 209 212 217 223
265 285 300 302 306 311 320 330 339 348 353 352 353 352 355 353 353 356 354 350 349 352 351 349 347 347 345 339 331 317 307 290 270 250 236 232 227 218 208 203 206 210 214
257 270 285 289 292 303 318 330 340 351 355 351 352 355 353 355 358 359 354 352 354 354 354 353 355 355 351 347 345 338 331 319 299 269 241 231 223 217 211 207 206 204 209
244 256 265 276 286 293 303 318 332 344 352 352 351 354 360 0 0 359 356 353 356 356 358 1 2 357 353 355 353 349 345 344 328 300 260 241 227 219 210 208 204 198 201
239 249 258 266 272 277 285 298 319 334 340 348 351 357 1 359 357 1 357 356 357 357 2 4 2 1 360 0 358 358 359 2 1 346 324 284 243 235 220 207 202 196 197
234 240 249 264 267 266 267 271 288 307 325 339 350 358 357 359 357 359 358 357 357 359 5 6 6 8 8 8 359 354 356 4 10 11 25 29 18 2 300 243 206 195 192
233 237 243 250 260 261 263 256 258 278 304 329 351 357 349 359 358 358 358 360 0 2 7 6 8 10 17 6 1 350 352 0 8 10 16 48 74 82 154 211 248 226 207
231 234 238 238 250 264 274 255 261 269 282 314 339 344 349 355 359 360 1 358 1 4 4 5 6 9 19 9 6 355 342 8 13 9 13 22 36 348 119 156 179 169 181
225 225 228 226 233 228 221 227 227 249 276 301 317 332 334 345 352 356 357 354 358 1 358 360 1 4 16 9 4 344 342 12 18 11 5 6 22 18 360 11 157 148 144
224 220 224 222 226 222 220 222 227 240 259 278 294 305 318 330 337 344 347 353 350 351 350 357 354 354 13 13 359 343 358 9 23 24 21 6 22 32 342 306 140 133 117
217 213 211 220 222 215 215 236 248 253 255 261 274 285 302 310 316 330 335 340 338 338 338 348 347 350 1 14 359 343 347 5 17 26 43 40 19 18 345 305 128 127 120
207 209 213 220 225 217 219 240 252 261 260 253 262 268 272 284 298 309 312 313 323 326 332 337 338 346 357 8 10 354 346 353 358 11 24 38 22 11 360 337 38 66 88
205 211 218 221 220 220 230 245 254 261 248 241 249 257 263 270 276 282 293 301 307 305 313 321 336 337 350 2 4 357 358 341 346 358 13 41 16 7 3 32 77 88 230
215 215 226 233 226 221 233 252 254 244 238 240 247 254 257 257 263 271 278 283 284 293 307 313 318 330 335 336 263 313 340 341 336 13 21 9 355 322 132 98 115 205 189
233 227 231 238 240 233 232 249 258 245 244 247 251 251 253 254 254 255 266 273 281 286 293 302 305 309 300 311 335 325 300 263 272 304 122 192 346 346 60 151 190 210 109
259 241 246 254 260 255 247 250 253 250 251 254 252 252 252 256 261 254 252 262 264 270 278 292 293 297 298 17 358 322 326 334 347 325 282 248 226 213 196 192 171 173 165
335 292 275 274 276 276 272 268 260 255 259 263 264 259 255 249 251 257 250 225 236 232 229 244 265 272 262 278 276 283 295 302 305 290 267 250 242 240 230 216 198 192 183